GFSMW_850_spd_000.txt.gz
Wind_Speed
34 32 30 30 27 25 27 25 25 21 20 20 21 21 20 19 19 21 19 18 17 17 16 16 15 12 12 15 14 12 13 11 13 12 10 3 4 4 3 3 4 5 7
33 34 34 34 32 27 26 24 23 21 22 22 21 20 18 19 17 16 17 17 16 15 13 12 12 15 16 15 12 11 11 11 9 11 10 5 2 2 3 2 4 6 7
37 38 35 35 34 32 27 24 23 23 23 22 21 21 20 19 18 18 17 15 11 10 10 12 15 12 6 4 8 10 10 9 8 7 6 4 2 10 1 3 6 8 8
38 38 38 38 38 33 28 25 23 23 25 23 22 22 20 17 15 14 13 12 12 12 11 12 8 7 4 6 9 8 8 9 8 7 4 4 7 3 4 5 6 10 10
41 40 40 37 37 35 31 27 25 25 26 25 24 22 20 17 15 15 14 15 14 13 10 8 6 6 6 8 9 7 7 7 7 5 5 5 5 6 8 9 13 9 10
43 40 38 38 38 35 32 29 28 27 27 27 26 24 21 19 17 15 14 13 15 13 11 10 9 7 6 9 5 4 4 5 5 5 3 2 4 5 6 11 15 14 15
43 44 43 42 40 40 34 32 32 32 31 29 28 26 23 20 17 14 14 14 14 14 11 10 10 7 8 5 4 3 4 3 3 5 6 7 8 9 10 12 13 18 21
43 47 46 45 41 39 37 36 37 36 35 33 30 27 24 21 17 16 16 15 15 12 11 9 10 10 9 9 10 8 8 8 6 7 9 11 11 13 13 15 16 18 22
47 47 48 47 45 42 41 40 40 39 38 36 33 30 26 22 19 17 17 17 15 14 11 12 11 11 10 12 13 12 11 10 11 12 13 14 15 16 16 18 19 19 23
39 46 47 49 49 45 44 43 42 42 42 40 38 34 31 25 20 19 19 17 15 15 15 15 13 13 12 12 13 14 12 12 13 15 16 17 18 18 19 20 20 22 24
40 44 49 50 50 49 49 48 45 45 45 44 43 40 36 32 26 23 21 20 17 17 17 16 15 15 13 12 12 11 11 13 13 14 17 16 17 18 19 20 22 23 24
41 44 44 46 48 50 52 53 49 48 48 47 46 45 41 37 33 28 24 20 19 17 17 16 16 16 15 12 11 10 9 10 11 12 14 16 16 19 19 21 22 24 25
36 39 39 42 44 46 51 54 54 51 50 51 49 47 46 42 38 32 26 20 20 19 17 18 17 15 13 11 10 9 9 11 13 14 16 16 17 19 19 21 23 25 26
37 37 39 39 39 40 44 48 52 54 55 52 51 50 48 48 43 33 28 20 20 20 19 18 16 15 13 12 11 12 13 14 16 17 17 17 17 19 21 23 25 26 27
33 37 39 39 37 37 40 43 46 49 52 54 54 52 51 51 45 32 30 21 21 22 20 19 18 16 16 14 12 13 15 17 18 18 18 18 19 20 24 27 26 25 28
39 38 36 37 35 34 36 39 41 42 44 48 52 52 48 50 44 27 32 27 25 23 23 24 21 19 18 13 13 14 17 18 20 21 21 21 23 21 20 19 23 27 28
41 37 34 30 26 26 29 33 34 36 39 40 43 44 44 44 39 26 23 37 26 25 26 27 24 23 19 14 16 18 21 22 22 22 23 25 24 25 22 23 26 27 26
32 31 24 22 20 18 19 21 25 28 31 33 35 37 37 38 37 28 30 33 32 29 27 25 24 25 21 18 20 22 24 24 24 25 25 25 26 26 25 27 26 27 27
19 15 8 6 2 3 7 11 15 20 24 27 29 31 31 29 37 26 32 32 38 31 27 24 23 24 24 22 22 24 26 25 24 23 24 25 26 26 27 26 27 28 26
17 18 13 9 3 2 4 7 12 17 18 21 21 23 24 27 26 26 29 35 37 36 32 24 19 17 25 26 28 25 24 24 20 20 23 23 26 25 22 23 24 23 21
16 11 6 2 1 2 4 6 7 10 10 12 17 19 19 27 27 26 28 32 31 32 26 24 26 30 35 27 30 24 22 21 19 21 20 22 23 20 19 19 20 21 22
19 15 10 8 9 12 13 12 14 9 8 11 13 17 18 22 25 24 25 28 30 28 20 27 31 29 18 28 25 19 20 21 22 21 21 20 19 19 21 20 19 19 24
14 14 14 13 14 16 16 12 14 11 9 9 10 15 21 22 21 19 15 12 8 11 16 26 27 22 22 22 15 17 21 20 21 20 18 18 19 20 20 19 17 20 25
12 13 15 19 12 11 12 10 13 10 9 7 10 13 16 19 17 16 16 6 7 15 21 21 17 18 19 16 17 18 18 18 19 19 18 20 21 20 18 16 17 22 22
12 12 11 12 10 8 6 7 9 10 10 8 9 13 19 22 22 21 13 9 18 19 16 17 15 18 17 16 16 16 17 18 18 18 19 19 17 14 14 15 20 20 18
8 10 10 10 8 6 4 5 9 9 7 13 18 19 22 17 19 18 17 19 16 13 13 16 15 13 13 14 14 15 17 16 15 16 18 15 12 12 15 18 17 15 15

GFSMW_850_spd_003.txt.gz
Wind_Speed
26 25 26 26 27 27 26 26 26 25 22 21 21 21 21 20 19 18 17 17 16 15 14 14 15 15 14 14 15 12 11 9 11 9 6 4 3 5 1 2 3 5 6
25 27 28 28 29 29 28 28 28 24 26 25 23 23 20 18 17 16 16 16 17 16 16 15 14 13 14 13 10 8 8 9 8 5 6 3 0 1 2 3 5 5 6
28 28 29 30 30 31 30 28 26 24 25 26 26 23 20 20 18 19 19 17 17 15 13 12 13 15 10 5 5 8 7 4 6 4 2 2 1 6 1 2 7 9 10
27 27 28 32 32 30 29 29 25 24 26 27 27 26 24 20 17 19 18 17 14 14 13 12 13 10 7 6 6 7 5 5 4 6 4 4 4 3 3 4 4 7 7
31 30 30 32 33 31 30 29 27 26 27 28 28 26 24 21 18 17 16 15 14 13 12 11 10 7 8 7 7 6 6 6 6 4 4 6 6 6 3 8 8 7 6
32 31 31 32 33 32 30 31 30 28 29 28 28 28 26 23 21 19 16 16 16 17 15 12 10 8 8 7 7 6 5 5 5 5 5 4 4 4 6 10 11 12 9
33 33 33 35 37 37 34 33 33 32 31 31 30 30 28 24 21 19 18 17 17 16 14 12 11 11 9 8 6 5 3 3 3 4 6 8 8 8 8 9 12 14 14
36 36 38 40 39 38 36 35 34 34 34 34 33 31 29 27 24 23 20 18 18 15 13 13 12 12 11 9 8 6 7 8 7 8 9 8 10 11 12 11 12 16 16
41 42 41 42 42 39 36 37 37 36 37 38 35 34 32 31 30 26 23 20 19 18 16 15 12 12 12 11 11 11 11 11 11 13 13 11 11 13 15 17 16 14 17
37 39 43 47 44 40 37 36 37 38 39 40 37 36 35 33 30 26 24 21 19 19 18 16 15 14 12 12 14 13 14 13 12 13 15 15 13 14 15 16 17 20 18
38 41 42 48 46 43 43 41 39 38 40 41 42 41 39 35 31 29 24 21 22 18 20 18 16 16 14 13 13 13 14 13 13 12 11 12 13 13 15 16 19 21 20
36 35 34 36 40 46 45 46 44 42 40 42 44 45 44 39 33 34 28 19 19 21 19 19 18 17 16 15 14 14 14 15 12 10 10 11 13 14 17 18 19 20 20
25 29 28 31 34 38 44 46 47 46 44 44 46 47 48 45 41 42 31 17 14 16 21 22 21 19 18 17 16 14 15 14 13 12 13 15 16 17 18 19 21 20 23
27 29 28 31 31 31 34 39 45 45 43 46 48 50 49 47 45 41 28 26 17 14 24 24 23 21 19 18 16 15 16 15 16 16 16 18 18 18 19 21 23 24 24
23 31 31 30 31 32 32 33 34 38 40 44 47 48 43 43 44 42 41 33 36 36 28 27 26 23 21 19 18 17 18 18 18 18 18 20 19 20 22 22 23 22 22
29 32 30 32 32 29 28 28 28 29 31 35 37 36 37 41 40 40 42 45 26 13 43 35 31 26 25 20 18 19 21 21 21 20 19 21 23 24 25 25 25 25 27
31 32 35 32 27 23 21 20 19 18 21 23 26 29 31 32 34 35 36 42 34 25 46 40 35 32 27 22 20 22 23 23 22 23 24 26 26 26 27 27 27 27 29
20 21 19 19 14 10 7 7 6 6 10 14 18 23 23 25 26 28 34 42 33 29 36 38 35 31 28 24 21 22 22 25 26 24 28 27 26 25 25 29 27 28 28
10 7 10 12 15 14 10 6 3 0 5 10 14 17 17 18 22 26 31 37 29 28 36 37 30 26 25 26 23 25 25 29 27 28 27 24 22 23 24 26 26 23 24
22 28 27 25 22 19 16 12 9 5 1 5 8 9 12 15 15 23 30 36 27 30 34 34 25 22 21 23 28 29 35 38 25 26 25 21 22 23 23 22 21 21 21
32 29 25 25 22 17 12 7 2 2 7 8 9 12 13 14 16 25 32 34 25 29 34 32 29 22 18 22 22 29 27 25 21 25 21 23 22 22 20 19 20 22 21
25 23 22 19 16 12 2 4 8 9 10 13 11 14 15 18 21 26 28 24 22 21 22 23 21 16 19 27 23 21 17 18 19 20 22 22 20 20 19 19 21 19 17
22 15 11 7 5 3 1 4 10 14 11 10 12 15 15 19 19 22 24 18 16 20 20 19 19 22 21 24 20 19 15 15 16 19 19 21 19 19 20 21 19 16 17
15 14 11 9 5 2 2 7 10 9 11 10 12 14 18 19 19 20 19 14 13 12 13 12 18 19 19 16 18 13 12 12 15 20 20 20 21 20 19 16 15 16 19
14 11 8 7 5 2 4 7 7 9 6 12 16 16 15 16 15 19 18 18 16 14 16 16 14 12 13 13 10 10 11 16 20 19 20 19 17 14 11 12 14 17 16
11 8 6 5 5 4 4 4 7 9 15 16 17 15 13 14 17 18 20 18 16 12 13 12 10 9 11 11 11 13 17 19 18 17 16 12 11 8 9 11 12 11 12

GFSMW_850_spd_006.txt.gz
Wind_Speed
25 26 25 25 24 23 22 22 23 22 21 18 17 16 16 15 15 15 15 12 13 13 14 10 10 9 8 8 9 9 9 5 7 5 4 3 1 4 2 2 3 4 4
25 27 27 27 27 26 24 23 24 24 24 19 18 17 14 13 13 12 14 14 12 13 10 10 8 11 7 9 6 5 4 5 5 3 4 3 3 2 1 1 4 4 4
28 29 30 29 28 28 27 25 25 25 24 24 20 16 16 15 12 13 11 10 11 10 10 10 8 9 8 6 3 4 5 3 4 2 2 3 1 4 2 1 2 5 5
29 29 30 31 30 29 27 26 25 25 25 24 22 21 15 14 13 12 11 12 10 10 10 8 8 10 5 6 3 4 3 2 3 4 3 2 3 4 3 3 4 3 3
32 31 31 31 31 29 28 27 27 27 25 24 24 22 19 16 14 12 13 13 13 11 11 10 10 8 5 7 5 3 3 4 4 4 4 4 4 4 3 8 5 7 4
32 31 31 30 32 31 29 27 28 29 28 27 24 25 20 19 16 16 13 12 12 12 13 12 12 8 7 7 5 6 5 4 5 4 5 4 4 4 6 8 9 9 8
32 32 33 33 33 34 31 30 30 31 30 30 27 25 24 23 20 18 15 14 13 12 14 15 13 8 8 7 6 7 6 4 3 5 5 6 7 7 7 8 9 11 11
36 37 36 36 35 34 34 32 31 34 33 32 31 29 27 23 21 19 17 16 14 13 12 12 13 10 10 9 8 7 6 7 6 6 6 7 8 9 10 11 12 14 13
37 37 37 37 36 35 36 37 37 35 34 32 32 32 30 28 22 20 18 17 15 13 14 13 13 10 11 11 10 9 9 9 8 9 9 10 10 11 12 13 13 14 17
32 38 40 40 38 36 36 36 37 38 34 33 34 34 31 30 27 23 25 23 18 16 15 15 14 12 11 12 12 11 11 11 10 9 10 11 10 12 12 12 13 14 18
30 35 41 40 38 36 36 35 34 34 35 34 37 36 31 29 30 29 28 22 20 17 16 15 16 13 13 14 15 14 13 12 11 11 12 11 12 10 11 11 14 15 15
25 31 34 36 39 39 37 36 34 33 33 37 39 36 32 32 32 32 32 29 26 20 15 11 14 16 15 15 17 16 13 13 13 13 13 11 10 11 12 13 13 16 15
18 25 30 35 38 39 39 38 35 35 32 31 30 33 35 37 32 34 34 33 28 21 20 27 28 21 24 21 20 19 17 15 14 14 13 13 13 14 13 15 15 16 17
16 23 28 32 33 36 40 39 35 33 31 30 29 30 33 29 32 34 40 35 33 30 31 37 33 35 28 28 23 20 19 18 16 16 15 15 15 15 15 16 16 17 18
18 26 30 32 33 33 35 33 31 29 29 28 28 28 25 25 27 34 41 40 41 41 41 40 45 37 32 29 26 23 20 19 18 17 17 17 17 17 18 18 19 23 22
21 26 28 28 30 28 28 26 26 25 24 25 25 23 23 25 29 36 37 40 46 49 49 46 41 35 33 28 27 25 20 19 17 16 17 19 19 24 22 22 24 25 27
25 28 29 26 25 25 24 23 21 21 21 20 21 23 25 26 27 28 30 35 42 49 48 45 37 28 36 30 27 24 23 19 17 18 20 21 23 22 25 25 24 25 27
20 23 25 24 22 22 20 19 19 20 21 21 21 22 22 22 22 23 24 26 32 42 45 38 35 25 32 32 31 26 26 26 22 24 23 25 23 24 26 25 20 24 24
20 23 24 23 23 23 23 23 21 20 20 19 18 19 19 19 20 21 22 23 26 33 31 31 27 23 26 28 27 28 27 25 30 26 30 34 35 24 25 23 24 23 21
19 23 25 26 27 27 27 26 23 20 17 14 14 13 15 17 18 17 19 20 23 24 25 24 22 22 23 21 24 25 28 30 27 27 30 28 21 21 22 22 22 17 16
23 28 27 28 31 30 27 24 20 15 12 11 13 14 15 17 17 17 17 19 21 21 24 22 21 25 22 23 21 18 22 24 26 23 19 14 16 16 20 21 21 18 20
26 29 32 30 26 24 21 16 13 10 11 13 15 16 17 18 19 20 18 20 19 23 20 18 22 22 23 25 22 22 20 22 22 17 10 18 19 19 20 20 21 19 19
27 25 24 24 21 20 16 13 11 12 13 15 16 15 15 16 16 15 16 18 18 17 18 19 18 15 19 23 23 19 20 18 15 10 15 18 19 19 19 20 17 16 12
20 19 17 16 13 11 11 10 11 11 12 12 14 15 16 16 13 12 11 12 12 11 13 15 18 17 16 14 17 16 15 13 13 15 16 16 16 16 15 17 11 8 10
14 11 11 11 13 12 10 9 9 11 14 15 15 15 13 11 11 12 13 10 13 12 11 12 13 9 11 11 11 11 10 9 10 11 8 9 9 10 10 9 9 10 10
12 8 8 8 9 9 9 10 12 14 15 14 13 10 9 8 8 8 14 15 12 11 10 11 11 11 12 13 13 13 12 12 14 12 9 10 11 10 10 10 10 10 11

GFSMW_850_spd_009.txt.gz
Wind_Speed
26 26 26 26 26 25 25 25 25 25 24 22 22 17 16 14 13 13 12 15 14 10 16 8 10 7 8 7 11 8 7 6 3 6 3 4 2 1 2 2 2 3 2
27 27 28 28 28 28 27 27 26 27 26 21 19 18 16 15 14 14 16 12 13 10 12 9 8 11 6 8 6 5 3 4 4 4 4 3 5 4 4 1 3 4 3
30 30 30 30 30 30 31 30 29 28 27 24 19 20 15 16 11 13 12 14 14 13 12 11 8 7 9 6 4 2 4 2 3 5 2 3 4 1 4 3 1 3 1
31 31 32 32 32 31 30 30 30 31 28 28 22 21 18 17 15 13 13 12 9 9 10 7 8 8 4 8 3 3 4 3 2 1 2 4 3 5 1 4 4 1 2
32 33 34 34 32 31 31 31 32 31 29 27 26 23 20 16 14 13 11 15 11 12 11 10 8 5 3 8 7 4 4 4 3 2 3 2 3 2 2 6 2 5 3
31 32 33 32 33 32 32 31 33 34 31 29 27 28 22 21 16 17 14 12 13 9 12 11 10 7 5 7 4 6 6 6 7 5 4 4 3 2 4 6 7 8 8
31 34 36 36 36 37 35 34 35 36 32 30 26 26 26 20 21 15 19 13 13 12 14 13 11 7 7 7 6 7 6 5 3 4 5 5 5 4 5 7 9 11 10
32 35 38 38 39 38 38 36 36 35 34 31 30 29 27 24 23 23 17 16 13 12 15 16 14 12 10 8 8 6 5 6 6 6 6 6 6 6 6 7 10 12 15
31 37 38 38 38 39 41 41 37 37 35 31 31 31 29 28 25 23 22 18 18 17 18 16 15 13 11 10 10 7 10 10 9 9 10 8 7 7 7 8 7 9 12
27 35 37 37 37 38 39 40 39 37 35 32 31 29 30 30 30 27 26 23 23 24 20 21 17 16 15 13 11 11 10 11 10 9 10 12 9 8 9 10 9 10 12
25 31 36 38 39 37 38 40 40 38 37 35 32 31 31 30 30 33 32 31 29 25 24 26 20 19 17 12 9 12 14 11 11 12 14 13 12 8 8 9 9 10 12
25 27 33 36 38 40 39 39 38 37 36 34 35 37 35 33 33 33 34 33 35 32 30 28 25 25 17 14 12 11 14 14 14 16 15 14 11 13 10 8 12 12 15
15 22 27 36 40 40 41 40 40 37 34 35 34 35 36 38 37 35 34 36 34 35 32 31 30 27 22 20 15 16 17 16 17 17 17 15 14 15 14 15 15 14 15
8 18 26 32 40 41 43 43 41 37 35 33 34 36 39 39 37 37 38 37 38 37 37 34 34 32 27 24 17 17 19 19 18 19 18 17 18 17 17 16 18 18 17
16 19 25 30 36 38 41 43 40 39 35 36 34 37 37 35 35 36 40 37 38 39 40 38 38 38 34 25 21 20 22 21 19 18 17 17 16 16 18 19 19 22 22
18 19 23 28 33 37 38 41 43 38 37 36 38 35 35 34 36 38 37 38 38 36 40 42 41 41 35 24 23 25 21 19 22 19 17 17 20 23 24 23 23 25 28
31 20 23 29 33 36 35 36 40 38 36 38 35 34 32 35 36 36 36 39 37 34 41 46 44 42 33 26 26 25 21 18 18 20 20 20 20 23 24 26 24 24 24
37 21 24 28 31 31 30 32 32 39 37 35 34 32 34 32 32 32 34 34 29 31 39 43 43 27 25 26 26 27 23 23 24 23 22 22 22 22 24 24 31 24 22
29 20 25 30 32 33 33 33 31 32 31 28 30 31 30 28 26 29 28 28 26 29 30 33 37 29 23 22 22 26 25 24 24 24 22 21 24 27 31 31 23 23 25
23 20 25 32 31 32 31 32 30 29 29 27 26 25 26 25 24 22 24 22 21 23 19 21 21 21 20 20 23 23 21 22 23 24 26 23 27 31 27 22 22 21 19
20 22 26 31 32 31 31 31 30 28 25 23 23 23 22 22 19 19 18 18 18 18 19 20 19 19 19 16 18 18 17 17 19 22 22 23 21 18 17 19 21 22 21
23 27 28 29 29 31 33 31 29 27 26 25 22 22 20 18 19 17 15 17 16 16 16 16 17 14 17 18 21 17 17 23 24 20 19 20 21 18 21 21 21 21 21
25 26 27 31 27 27 28 27 24 26 24 23 21 21 21 21 18 17 18 17 15 13 12 12 12 15 15 17 19 19 23 22 19 21 19 21 19 19 20 20 17 15 18
28 28 27 29 24 20 19 18 19 19 20 21 19 19 19 19 17 17 15 12 10 10 11 10 11 9 7 8 8 11 13 13 18 22 20 20 17 17 14 13 12 12 6
27 24 20 21 19 18 15 14 14 15 14 15 16 19 15 15 13 14 12 12 12 11 8 6 5 7 8 8 8 8 9 10 13 12 9 10 9 11 14 13 11 9 11
22 22 19 17 16 14 14 12 14 15 16 18 16 15 15 15 12 13 14 13 10 12 12 8 6 8 8 7 8 11 14 14 14 12 11 13 13 14 13 12 12 12 13

GFSMW_850_spd_012.txt.gz
Wind_Speed
29 30 29 29 29 29 30 31 31 28 21 22 22 22 18 16 13 12 11 14 14 13 14 12 11 7 5 9 8 10 11 1 4 8 7 10 2 6 5 3 3 6 4
30 30 31 30 31 31 32 32 33 32 32 25 23 23 17 16 15 15 17 16 16 13 11 9 5 6 4 5 10 12 4 3 5 5 6 6 8 7 10 3 3 6 4
32 35 34 33 33 35 35 35 33 33 34 30 28 22 21 22 15 16 17 17 18 13 10 11 8 8 10 9 7 4 2 2 1 7 3 5 3 9 10 4 7 3 5
34 34 37 36 35 36 37 36 36 34 33 33 24 20 22 17 16 14 16 17 15 10 18 11 9 14 8 8 6 2 5 3 2 2 3 6 2 3 4 9 6 2 2
35 35 40 39 36 36 38 39 35 34 34 31 31 25 25 23 17 17 15 21 14 6 8 11 14 13 9 9 10 10 7 6 5 4 4 1 4 2 1 2 5 2 6
36 38 39 39 40 37 38 40 38 37 34 33 31 27 25 23 19 19 18 17 14 15 19 18 17 13 10 11 8 8 7 12 9 8 7 1 3 4 3 5 6 5 6
35 38 39 43 44 42 41 40 41 40 37 35 34 33 28 23 26 20 22 17 16 19 15 21 18 14 11 13 9 7 7 6 10 7 10 3 6 5 4 5 8 7 11
36 39 42 42 44 46 42 41 42 41 38 35 37 32 34 31 30 25 22 23 20 18 22 18 18 14 12 15 13 11 11 8 5 10 13 10 5 5 7 8 9 12 13
39 38 40 43 42 45 45 44 42 42 40 36 38 35 32 37 29 33 27 24 25 19 24 23 22 19 18 13 14 11 9 12 9 9 7 6 10 5 8 8 7 5 10
35 36 38 41 41 42 45 43 43 43 41 38 39 37 35 34 38 31 31 30 22 24 23 27 26 22 19 19 17 13 17 12 10 10 9 10 10 10 9 9 8 9 11
24 34 39 40 41 39 43 45 44 42 42 40 38 39 39 37 36 36 34 33 31 28 28 27 28 23 22 21 19 18 15 15 12 10 16 16 15 15 13 10 9 9 8
25 29 32 39 41 42 42 44 44 44 44 42 40 40 39 39 39 40 39 37 34 35 34 36 32 29 26 25 22 20 23 22 17 14 13 17 18 11 10 9 7 10 13
7 32 32 40 42 44 43 43 45 45 42 42 43 43 41 41 41 42 41 40 38 40 40 39 38 35 33 32 26 21 20 21 20 19 15 14 16 17 15 14 15 17 16
18 26 23 35 43 46 47 46 45 45 44 43 44 44 44 44 42 42 41 39 42 42 42 43 41 37 37 35 30 25 22 20 21 21 18 16 16 18 19 20 19 17 16
18 15 17 30 44 45 48 49 45 46 44 45 44 45 44 43 43 41 42 42 40 42 40 41 40 38 38 37 33 29 25 21 21 21 19 18 21 22 22 20 18 18 19
16 26 25 22 30 43 48 51 49 47 45 46 47 42 42 42 42 42 40 38 38 35 36 38 38 40 40 37 34 28 24 22 24 23 22 21 18 19 19 23 22 24 25
23 14 25 28 27 34 47 51 52 46 47 46 46 44 42 44 42 39 37 37 36 34 38 37 37 38 37 32 27 25 23 23 25 22 23 19 20 21 21 23 24 26 25
29 29 20 29 29 30 35 41 44 46 45 45 43 44 43 43 41 38 36 36 37 39 38 36 35 37 36 32 35 30 26 28 25 24 22 19 20 21 22 25 25 26 27
27 33 31 32 29 34 36 38 41 47 43 44 41 42 38 40 39 36 35 36 37 34 33 30 31 34 30 28 33 31 31 28 31 29 24 24 23 23 22 24 28 28 29
29 21 33 30 31 36 36 40 39 43 48 43 44 37 35 32 35 34 32 30 27 28 26 24 25 26 23 26 23 19 21 27 29 26 24 24 23 23 23 25 28 26 22
34 24 20 27 32 37 35 39 39 39 40 37 34 34 31 32 29 28 26 23 21 18 19 19 16 15 15 19 19 19 20 23 24 21 25 27 18 21 21 19 19 19 21
11 14 20 27 33 36 34 34 32 29 30 30 28 29 30 29 27 26 21 17 17 18 17 15 15 16 18 18 18 16 16 17 18 19 8 13 13 16 22 19 19 20 22
12 15 18 22 24 27 31 31 27 27 28 27 27 27 26 24 21 20 17 17 17 16 15 13 11 14 15 15 16 17 19 19 18 19 20 21 20 21 17 17 19 16 15
16 22 23 22 23 25 28 28 29 29 30 29 28 26 25 24 19 19 19 18 17 14 12 12 12 11 12 12 10 11 16 21 18 15 15 19 17 14 15 12 11 12 10
24 24 25 24 25 28 30 31 30 31 31 27 25 23 22 22 22 21 19 16 15 13 11 8 7 9 8 7 4 4 8 11 12 14 9 8 9 10 14 16 11 8 8
27 26 22 22 23 23 25 27 24 23 23 23 21 22 22 21 22 19 19 17 15 14 11 11 11 11 12 9 5 2 1 3 4 8 11 11 13 14 10 7 5 6 8

GFSMW_850_spd_015.txt.gz
Wind_Speed
37 38 36 35 30 33 33 33 31 26 24 24 20 18 19 17 15 18 16 15 15 14 10 12 9 8 7 4 7 8 11 4 2 5 2 8 2 7 4 3 6 6 3
41 39 40 39 39 37 38 36 34 32 26 24 24 19 21 19 16 12 15 16 16 12 10 7 9 8 8 7 8 8 5 5 4 4 3 3 9 9 7 5 5 4 3
46 45 46 43 42 41 41 40 38 34 34 26 26 24 19 20 19 20 16 19 15 14 11 11 10 8 10 10 8 7 10 8 7 4 2 3 4 9 9 5 2 2 3
47 49 49 47 45 45 41 40 38 36 37 34 30 29 23 28 25 17 21 16 17 15 12 15 11 14 13 13 9 4 7 11 7 5 2 6 1 4 7 10 5 3 2
48 51 52 53 49 47 46 43 40 38 36 38 38 34 27 28 21 20 17 20 20 16 12 14 14 14 11 13 11 8 8 19 15 10 10 4 3 5 4 6 12 7 9
49 49 54 53 50 49 48 46 43 40 38 35 36 35 28 25 24 25 22 22 22 20 13 16 15 13 13 15 11 10 10 13 15 14 12 9 5 5 4 4 1 2 6
43 48 50 53 54 52 49 49 46 43 40 36 33 34 32 28 26 28 24 22 24 22 18 18 19 14 15 15 12 9 10 14 13 16 16 12 9 6 6 5 4 6 8
44 52 54 57 57 55 50 49 49 45 42 39 34 32 37 32 30 30 19 27 25 21 18 19 15 15 14 14 14 11 10 12 13 15 19 20 15 13 9 8 9 9 10
42 45 55 57 58 57 54 50 49 47 43 40 35 33 37 40 33 35 29 24 23 21 19 19 19 17 15 16 16 13 13 12 12 13 18 22 18 16 11 7 8 9 10
39 40 52 57 59 59 56 51 49 48 44 40 37 35 38 40 39 35 37 30 28 28 23 25 23 22 20 18 19 17 15 14 13 13 13 18 22 21 17 11 10 6 9
50 48 57 59 58 58 56 54 51 48 46 43 40 37 37 40 38 39 38 39 31 32 32 29 27 27 25 22 23 20 18 18 18 18 16 16 19 23 18 17 14 10 8
57 48 55 53 55 57 56 57 54 51 48 44 42 39 36 39 40 39 43 37 41 36 30 32 32 30 29 26 27 24 23 20 20 20 19 20 19 18 17 20 19 15 14
33 46 50 50 53 56 56 57 56 53 49 45 43 41 39 39 42 42 41 43 41 41 40 38 37 38 35 32 30 27 25 24 23 22 22 20 23 25 20 18 19 18 16
21 30 51 55 58 57 55 55 57 53 49 47 45 44 43 41 42 41 41 43 42 41 42 42 41 40 39 37 34 30 28 26 27 26 25 23 21 21 23 20 19 16 17
21 21 44 51 53 56 55 55 55 54 49 47 47 46 44 43 42 43 42 41 44 45 41 41 42 42 40 38 36 33 30 31 27 24 25 26 24 22 22 23 21 21 22
21 18 41 55 56 55 55 56 55 53 50 46 46 44 44 44 44 45 43 41 40 41 44 41 40 41 39 38 38 37 32 32 28 23 24 26 27 27 26 25 21 21 23
18 28 29 42 49 52 52 56 56 55 53 49 46 44 43 43 44 44 43 41 39 36 35 34 35 36 36 33 35 36 31 31 29 25 24 27 29 26 24 24 24 23 25
17 31 31 30 41 50 52 51 56 57 54 52 48 44 44 42 41 41 42 38 36 35 33 32 33 33 34 36 34 30 28 28 26 25 27 29 26 25 24 23 21 24 23
29 19 21 31 36 37 46 54 55 58 56 55 51 49 45 45 45 43 40 37 36 34 33 32 28 30 33 32 30 27 28 31 30 26 30 28 25 23 23 21 23 24 25
39 34 41 32 40 40 41 49 55 58 59 57 54 52 47 48 48 44 39 38 34 29 26 28 28 28 26 24 22 21 25 26 28 26 28 28 22 23 21 23 24 24 26
18 31 36 28 29 43 43 45 49 54 59 54 52 49 44 47 44 40 39 35 27 24 27 26 25 22 18 18 16 13 17 19 21 21 21 27 26 25 23 21 23 23 21
5 28 35 34 27 39 46 47 47 46 44 40 41 38 38 37 37 37 28 27 26 25 22 17 17 15 12 14 15 15 18 18 18 19 20 20 17 23 21 17 18 16 16
5 11 30 35 31 38 44 43 39 38 38 38 34 35 35 35 33 29 27 24 22 20 17 16 14 13 15 15 15 16 17 19 18 17 18 15 14 14 16 15 13 12 9
19 19 25 29 32 39 35 36 36 34 36 37 36 35 33 29 26 23 22 21 19 17 16 15 14 14 15 15 14 13 14 17 18 17 18 16 11 10 9 7 8 10 10
28 34 35 30 27 27 32 32 33 37 37 35 34 31 30 29 28 23 20 17 16 15 14 15 14 12 13 10 9 8 8 12 15 17 15 10 5 3 5 10 12 12 12
9 36 37 39 36 34 35 35 33 29 27 25 27 30 31 28 23 22 22 19 15 16 16 14 14 10 7 9 8 6 5 7 9 11 9 7 4 6 11 8 5 6 7

GFSMW_850_spd_021.txt.gz
Wind_Speed
47 44 42 42 43 42 39 37 36 35 33 31 31 31 30 26 24 22 18 15 12 12 12 9 11 11 10 8 7 7 8 11 7 7 11 7 4 8 6 3 2 2 2
37 46 44 44 46 44 44 40 39 38 36 32 31 33 32 29 27 24 21 18 14 12 13 11 13 13 12 13 10 9 10 8 9 6 7 10 7 9 11 6 2 6 4
43 49 50 48 47 49 46 44 42 42 39 35 32 31 28 30 33 30 25 21 18 16 16 14 15 14 13 13 12 10 8 11 8 7 7 5 5 14 13 9 6 5 4
40 47 50 50 48 47 46 46 45 44 42 39 37 34 31 30 29 32 30 24 20 20 19 17 18 14 13 13 13 11 6 12 12 8 8 9 9 11 8 12 12 7 5
46 46 53 53 51 47 45 45 46 44 44 44 40 36 34 30 24 25 29 26 22 22 23 21 21 16 14 13 13 11 9 13 14 12 10 8 9 12 11 13 16 13 10
48 53 55 54 52 53 49 45 47 47 47 46 43 40 37 33 29 27 29 27 24 24 23 23 21 16 15 16 12 11 11 11 16 15 13 10 9 12 12 12 15 15 12
47 53 50 49 48 56 55 52 51 50 49 48 45 42 39 34 30 30 28 30 27 27 26 26 23 17 13 13 11 12 12 12 11 15 13 13 11 9 9 8 9 8 8
47 53 56 60 61 60 59 58 56 54 53 51 48 43 40 38 32 31 31 29 32 28 25 24 23 19 16 16 14 12 14 13 14 16 16 15 14 12 11 10 10 10 10
49 53 59 58 60 57 62 62 61 58 56 53 50 47 43 41 36 30 30 30 34 31 27 25 24 22 19 18 17 14 15 14 13 14 17 18 18 16 15 14 13 14 14
45 52 52 59 62 61 63 62 62 61 59 56 53 50 45 43 39 31 30 32 35 35 31 28 26 25 21 19 19 16 17 18 14 14 17 19 19 20 18 16 16 16 13
46 53 56 57 56 55 56 61 61 62 62 60 56 53 48 45 43 36 32 35 36 37 33 30 28 27 24 22 22 19 18 20 19 16 17 16 17 18 22 20 19 18 16
50 55 58 51 48 51 53 58 59 60 61 60 58 54 48 47 46 41 36 37 38 38 37 31 30 29 28 25 24 23 22 21 21 21 19 19 18 18 18 21 23 20 19
36 36 36 38 46 49 49 54 57 59 59 56 58 57 52 49 48 44 39 38 41 40 40 38 33 34 32 29 27 26 26 25 22 22 23 20 20 19 18 19 22 22 21
32 39 43 35 41 47 50 53 54 55 57 56 56 56 55 47 48 46 41 41 41 43 42 41 40 35 33 31 29 29 29 28 28 27 25 24 23 21 20 19 19 21 22
34 41 43 47 45 41 48 52 51 51 54 56 56 56 55 48 46 49 45 42 42 43 43 43 41 40 36 34 33 32 32 31 32 33 28 25 25 24 23 22 21 20 21
40 49 53 56 39 39 49 48 51 52 52 53 55 55 55 51 49 50 48 45 44 43 44 44 44 43 40 40 38 37 36 33 34 35 30 27 25 26 25 23 22 22 20
36 42 49 57 49 51 52 53 54 55 52 51 53 55 56 53 52 51 50 48 47 44 43 43 42 42 41 39 37 36 35 33 33 31 28 27 25 26 26 23 21 22 24
24 38 41 47 52 51 47 45 48 57 56 53 52 53 55 54 53 53 52 50 49 47 43 41 41 38 37 36 34 31 33 32 27 24 24 23 23 25 25 24 23 23 23
30 24 32 43 49 48 45 47 49 55 55 55 53 54 55 56 54 54 53 53 51 47 44 39 35 33 33 28 25 28 33 32 27 25 19 18 20 20 22 23 24 23 21
28 26 18 21 35 46 48 49 50 52 56 57 55 54 55 56 56 53 52 52 51 47 42 34 31 29 25 17 19 19 25 28 26 19 19 20 19 19 21 23 22 23 19
24 21 23 23 21 30 45 48 49 51 53 54 56 55 54 55 55 54 52 50 49 42 36 33 30 25 20 20 20 22 23 26 16 16 15 16 18 21 24 24 18 16 13
4 11 23 21 24 30 34 42 47 41 47 54 56 54 54 54 53 53 51 47 42 38 38 36 29 26 27 28 27 24 22 19 17 16 16 17 18 18 16 12 12 15 15
2 3 3 4 11 25 30 40 42 46 50 52 54 55 51 50 50 52 52 46 40 41 43 38 33 34 31 24 21 18 17 19 17 17 18 17 15 12 11 10 11 14 15
6 9 11 12 11 9 15 27 38 44 51 54 54 54 55 52 49 50 51 51 44 45 42 38 38 38 27 25 19 17 20 22 23 20 18 15 12 11 10 10 12 12 13
7 6 8 13 17 18 18 16 26 36 44 49 51 53 52 49 46 43 40 41 42 40 38 36 33 33 35 29 23 23 25 24 20 18 18 16 14 13 11 12 12 12 12
11 12 12 12 16 19 22 25 27 26 30 41 46 45 47 49 46 43 41 35 33 38 28 18 12 19 19 20 23 23 20 19 18 19 17 15 14 11 12 12 12 12 12

GFSMW_850_spd_024.txt.gz
Wind_Speed
42 41 38 35 34 34 33 33 33 30 28 27 31 29 28 25 20 20 18 17 15 11 11 11 9 9 9 9 8 5 5 6 7 4 5 6 3 5 2 1 4 5 2
36 41 41 40 37 37 37 36 34 32 32 30 29 31 31 28 23 21 20 19 16 13 10 12 11 10 11 11 9 8 7 9 8 5 8 8 5 7 6 4 2 6 8
41 45 45 45 44 42 42 41 38 37 35 34 32 32 31 31 29 27 25 22 18 16 12 12 12 11 12 10 10 9 7 5 9 8 6 6 5 10 10 8 5 5 6
39 41 47 46 48 46 44 44 42 40 38 36 36 35 33 31 30 32 28 25 21 18 18 15 15 14 12 11 9 10 8 7 10 10 10 10 6 9 8 13 10 8 5
45 46 47 49 51 49 48 47 45 43 41 39 39 37 37 32 27 26 28 30 27 22 20 18 17 15 15 13 11 11 10 8 12 12 8 10 11 10 8 10 15 14 9
44 48 49 46 49 50 50 49 50 48 45 45 44 42 38 35 31 29 26 27 28 26 24 22 21 19 17 15 12 12 12 9 11 12 12 10 9 9 10 10 9 15 13
41 49 45 48 49 51 52 52 51 51 50 47 47 47 43 39 34 30 26 25 29 30 27 24 22 21 18 14 12 12 12 10 9 13 13 13 11 7 6 7 7 8 10
45 47 52 53 53 53 55 54 52 50 49 48 48 47 46 44 39 34 30 28 29 30 26 25 24 22 19 15 13 13 12 13 11 10 14 13 13 11 9 8 9 8 8
43 48 52 55 55 55 56 58 56 52 52 49 46 47 46 46 43 39 33 29 29 29 30 28 25 23 20 18 17 16 15 15 12 11 14 16 15 14 13 12 11 12 12
42 47 49 53 59 59 57 56 56 55 53 52 51 49 46 44 43 40 36 31 31 31 31 31 28 26 22 21 20 18 17 17 15 13 13 15 16 17 18 16 15 15 14
43 49 51 53 57 56 58 57 57 57 56 56 54 52 51 48 46 43 37 35 31 33 33 33 32 28 25 23 22 21 19 17 17 17 16 15 15 17 19 19 18 16 15
39 46 50 50 49 54 54 56 55 55 57 56 55 55 51 51 49 46 40 37 35 33 34 33 35 32 28 26 25 23 22 21 19 18 20 19 18 18 17 18 19 19 17
31 38 39 41 47 51 52 54 55 55 55 55 56 55 54 53 51 47 43 40 38 35 35 35 37 35 31 30 27 25 24 23 22 21 20 19 20 20 20 17 18 17 18
24 26 35 41 47 50 53 53 54 52 51 52 53 55 54 53 51 47 45 43 40 39 37 39 39 39 34 32 30 28 28 26 25 25 24 21 22 22 21 21 18 17 16
17 18 23 32 42 48 49 49 49 50 47 46 50 54 54 52 48 49 45 43 42 42 40 40 42 41 40 36 33 31 30 27 26 27 28 28 25 23 23 24 21 19 18
23 19 22 29 38 44 46 46 45 45 45 45 46 48 51 51 49 49 47 44 42 43 42 42 44 44 43 41 38 32 30 27 28 28 29 30 28 24 22 23 22 21 22
37 33 28 29 37 42 46 45 44 44 46 45 46 47 48 49 49 49 49 48 44 44 45 44 44 46 46 43 38 35 34 31 30 29 28 30 28 25 25 21 23 22 21
41 39 32 30 31 40 43 46 43 45 42 45 47 48 49 47 47 49 50 50 48 46 47 46 44 43 44 42 38 37 35 32 30 28 26 23 22 21 24 24 23 21 20
33 19 22 19 28 34 37 45 45 43 42 46 48 48 49 48 46 48 49 52 52 49 49 48 46 43 42 41 38 36 37 35 31 26 25 25 22 20 20 23 23 19 20
33 28 24 24 25 31 34 46 48 51 51 50 50 49 50 49 48 46 46 49 52 51 50 49 48 43 41 38 37 35 36 36 32 30 26 22 18 18 19 21 18 18 19
24 24 21 21 24 31 36 41 44 48 50 47 46 48 48 48 47 43 43 46 48 50 51 49 48 43 42 38 35 35 38 36 33 29 24 21 18 18 18 16 17 18 18
6 7 16 16 13 15 16 25 33 39 41 41 43 43 46 46 48 48 43 39 45 47 49 48 47 44 42 39 37 37 37 32 29 25 23 21 19 18 17 18 17 17 16
16 15 14 10 3 8 10 15 23 25 27 30 35 38 40 43 44 49 43 46 41 43 42 42 40 42 44 44 42 40 35 31 27 23 23 22 19 17 16 15 15 16 17
21 19 16 15 13 10 7 3 12 18 21 25 28 32 36 39 43 44 41 44 44 50 37 43 51 48 46 44 41 36 31 26 26 27 26 21 18 14 13 15 16 15 15
20 18 17 16 15 14 13 12 12 13 13 16 24 26 33 37 40 42 42 44 38 41 37 40 34 39 40 46 41 29 25 24 27 30 25 20 17 16 17 19 17 16 15
16 14 13 13 15 16 18 20 21 23 24 24 20 22 28 34 40 42 39 38 40 36 38 37 41 23 3 2 16 10 21 24 27 29 20 17 18 19 21 19 17 16 15

GFSMW_850_spd_027.txt.gz
Wind_Speed
33 31 32 31 34 35 35 31 28 27 29 31 31 30 27 26 25 24 20 18 17 16 14 13 10 9 6 6 6 5 3 5 9 4 4 6 3 4 2 4 5 4 3
30 31 32 32 34 37 38 36 32 30 31 30 29 31 29 28 27 23 20 18 17 16 13 12 12 9 8 8 8 6 5 6 4 5 6 4 2 4 3 2 4 7 7
35 34 35 35 34 37 39 38 37 36 34 30 27 27 31 29 29 27 22 21 19 16 14 12 12 10 9 9 9 7 5 5 6 6 4 3 3 5 7 5 5 5 6
34 31 36 36 37 40 38 40 38 38 36 34 33 31 32 33 32 32 27 23 21 19 16 15 13 13 11 9 10 8 5 4 7 8 8 8 4 5 4 10 8 7 5
36 37 38 45 46 42 41 41 41 41 39 37 36 34 32 30 28 28 28 27 24 21 19 18 16 14 12 11 11 10 7 6 7 9 6 7 9 8 6 7 8 13 11
36 36 38 39 40 41 44 44 44 43 42 40 39 38 36 33 31 29 25 25 26 26 25 21 18 17 15 12 12 11 9 8 7 10 10 7 5 6 7 7 8 10 11
37 38 36 36 43 45 48 47 47 45 44 44 43 42 39 36 33 29 27 27 25 26 27 25 22 20 17 16 13 12 11 9 8 9 11 11 11 8 5 6 6 6 9
36 39 42 45 48 48 49 51 49 48 47 46 46 44 43 41 38 35 31 27 26 24 24 25 23 21 18 16 14 13 12 11 11 11 11 13 12 11 10 8 6 5 6
35 39 45 47 50 50 51 50 51 49 47 46 46 46 46 46 45 40 34 31 28 26 25 26 24 23 20 19 17 16 14 13 13 13 13 14 15 14 13 12 11 8 7
30 34 38 43 50 50 51 51 49 48 47 46 46 46 46 45 45 43 39 35 31 28 28 28 28 26 24 22 21 20 18 17 16 16 15 14 15 16 15 15 14 13 12
30 32 37 41 47 45 45 51 53 51 50 47 46 46 47 47 46 47 41 36 34 32 31 31 30 31 28 25 25 24 21 21 20 20 19 16 15 17 17 16 16 16 15
27 29 30 31 33 44 44 49 51 53 54 52 50 49 46 47 47 46 43 38 37 36 34 33 34 33 33 30 29 28 26 24 23 20 21 19 19 18 18 18 18 17 17
21 26 22 29 37 42 46 48 49 50 49 53 54 53 51 51 51 48 45 42 39 38 36 35 36 36 36 36 33 30 29 27 25 24 22 19 20 21 21 20 19 17 16
17 17 23 29 33 39 44 47 47 47 46 48 51 53 54 54 53 50 48 46 43 41 39 38 36 37 37 38 37 34 33 31 29 27 26 25 25 23 22 22 21 20 17
16 20 23 24 27 34 40 42 45 45 46 47 47 47 47 49 51 51 50 49 47 44 41 40 40 38 39 40 40 38 36 36 33 31 30 30 28 25 23 22 23 23 21
23 23 22 20 21 23 32 39 43 46 46 46 45 44 44 45 47 47 47 46 48 47 45 45 43 42 42 44 44 41 39 39 37 36 33 32 29 27 28 22 22 24 25
31 29 27 27 24 25 28 35 40 46 47 47 45 46 45 45 44 45 46 45 47 47 48 47 47 46 45 46 45 42 43 41 39 37 35 34 32 27 29 25 25 25 24
40 38 35 34 35 33 31 33 37 42 46 46 46 46 47 45 45 46 47 46 47 49 50 49 49 48 47 47 46 44 43 45 42 40 38 37 32 28 27 28 29 28 25
43 40 37 31 28 25 27 31 36 39 41 41 43 46 45 47 47 48 48 48 48 50 52 51 50 50 50 49 46 43 44 47 46 42 40 38 31 31 27 29 30 28 26
35 30 27 22 15 18 21 27 34 39 39 40 42 43 42 43 44 48 48 48 50 51 52 53 51 50 49 50 45 41 42 48 47 43 43 36 33 31 28 30 30 28 26
24 24 25 24 23 22 20 22 28 34 33 36 37 40 41 42 41 40 40 43 45 47 50 55 53 51 50 48 45 42 41 47 46 44 43 36 33 31 27 29 28 26 23
15 20 24 22 19 18 16 16 21 25 28 31 32 33 36 36 35 37 36 34 42 37 37 42 52 55 53 49 47 42 42 43 44 44 38 35 31 28 28 27 24 22 20
12 12 16 18 15 13 11 12 13 16 17 18 19 21 24 28 32 35 35 38 39 30 29 39 41 38 47 51 47 42 39 39 39 36 31 29 29 28 26 24 23 23 22
21 21 21 20 18 13 9 6 3 4 7 12 15 17 20 23 26 31 31 36 36 38 46 52 45 44 42 44 45 46 42 39 38 33 31 30 28 26 25 24 24 24 24
23 22 22 20 18 15 11 8 5 3 3 5 9 14 19 23 27 30 33 39 43 45 44 52 45 49 36 40 46 37 33 28 33 27 26 26 27 29 25 25 27 26 23
21 21 19 16 13 9 6 3 1 3 6 9 11 14 18 21 26 33 37 41 42 43 39 41 44 46 38 42 39 33 31 33 12 15 28 28 30 26 27 28 29 24 21

GFSMW_850_spd_030.txt.gz
Wind_Speed
30 30 31 30 29 28 28 28 27 28 27 25 23 22 21 19 17 17 19 19 16 13 12 9 10 4 4 2 0 2 2 1 3 6 7 5 4 5 4 5 4 4 3
28 30 31 32 32 30 29 29 29 30 31 27 25 22 21 19 18 17 18 21 18 16 14 11 11 8 4 3 1 1 0 1 4 5 5 7 5 5 4 4 4 5 5
32 32 33 34 33 33 32 32 32 31 31 26 23 22 20 20 19 20 19 19 18 16 14 11 10 9 4 5 3 1 3 1 4 8 3 4 3 7 5 4 4 3 3
31 32 33 35 36 36 33 33 34 33 30 32 24 27 25 23 21 21 19 17 20 18 16 14 11 10 7 8 4 3 4 4 5 6 6 6 4 5 7 7 7 6 4
35 36 37 38 37 33 33 32 34 37 32 34 30 27 26 21 19 19 21 23 18 21 17 16 16 14 10 10 9 6 3 6 7 6 6 6 7 7 5 6 7 8 8
35 37 37 34 34 33 32 31 34 40 39 38 37 34 28 25 22 21 20 20 20 19 23 19 18 17 15 12 9 8 7 7 7 8 8 6 5 4 5 5 5 7 7
34 37 37 36 35 36 35 34 35 40 42 41 40 39 36 32 28 24 21 18 18 20 21 25 23 18 18 15 13 13 11 10 10 10 9 8 7 6 5 5 4 4 5
33 35 38 39 39 40 42 40 39 43 43 43 43 41 39 35 31 28 24 21 20 19 20 23 25 23 20 18 16 15 13 13 13 12 11 9 9 8 7 5 4 3 6
32 36 38 40 39 40 44 46 48 47 46 45 45 44 42 41 34 32 31 27 23 20 20 21 24 24 23 21 19 16 17 17 15 15 14 13 11 10 9 8 6 7 7
30 31 34 38 40 40 41 44 49 49 49 48 48 47 46 44 43 42 39 34 29 28 22 23 23 25 25 24 23 20 21 21 19 17 18 16 13 13 11 10 9 10 11
29 31 32 34 37 36 37 40 42 48 48 49 49 49 48 47 45 46 45 42 39 36 31 30 26 27 27 28 27 24 22 24 23 23 22 20 18 14 13 12 12 13 12
24 24 26 27 30 35 38 41 42 42 48 48 47 49 49 47 45 47 46 44 42 41 38 35 32 31 29 30 32 30 26 28 27 26 26 24 21 20 17 15 18 15 12
17 20 22 27 29 32 35 37 39 43 42 45 46 47 48 48 49 48 45 44 42 41 40 40 39 35 35 34 35 34 33 32 30 28 27 25 23 23 19 20 17 14 15
10 17 20 26 25 29 35 41 37 38 39 40 43 48 52 51 49 48 46 46 46 45 43 42 41 39 36 37 37 38 38 36 34 32 30 28 27 25 22 23 21 19 16
4 9 14 19 21 25 31 36 36 38 39 43 41 49 53 54 53 53 51 48 48 46 45 44 43 42 41 37 42 42 42 41 38 35 34 33 30 29 26 24 22 21 20
22 18 16 17 19 23 26 29 36 39 40 42 49 47 46 48 51 53 53 52 50 49 47 49 48 47 45 43 42 43 44 45 44 41 36 34 33 32 29 27 26 25 22
20 17 16 18 18 22 22 25 28 30 37 43 44 45 45 44 44 47 48 50 52 51 51 50 52 53 51 49 46 45 45 47 47 44 38 34 32 34 31 30 29 28 27
25 24 22 19 19 20 20 22 24 30 38 41 41 44 46 45 42 42 44 45 47 50 51 52 53 55 54 52 49 47 44 45 46 44 41 41 38 36 32 31 29 31 32
28 27 25 22 20 22 21 19 23 27 32 39 39 41 43 40 36 42 43 43 40 41 40 39 44 53 56 54 51 49 47 47 49 50 45 41 40 39 33 31 28 29 30
26 26 23 22 22 25 21 20 23 25 31 35 35 34 37 39 39 40 39 37 34 34 33 37 40 43 50 51 53 51 49 48 48 45 48 48 45 42 35 32 30 31 31
21 20 21 24 23 21 18 18 20 25 27 24 27 31 34 36 37 38 37 37 37 33 37 38 40 42 44 51 53 54 54 53 45 44 39 37 44 45 39 34 33 35 29
20 19 20 21 21 23 24 22 22 20 23 23 24 28 31 30 28 36 38 38 36 37 41 43 43 40 49 52 56 60 57 54 50 45 43 39 44 39 36 36 34 30 25
19 16 14 15 15 18 20 20 19 20 22 23 25 25 26 27 30 33 33 31 34 36 39 38 42 38 44 51 62 59 57 52 50 40 39 44 43 31 31 32 31 28 24
10 7 9 12 11 12 12 14 14 14 15 15 17 18 21 22 23 25 27 29 31 36 41 44 47 43 45 52 53 57 52 43 42 43 42 38 29 25 27 30 29 28 25
3 3 6 9 10 12 13 14 14 12 12 12 12 14 15 19 20 24 25 28 33 35 37 40 39 38 38 48 53 51 46 48 46 52 39 31 28 30 24 27 28 30 30
6 6 6 6 9 8 10 11 12 12 10 6 6 9 12 14 16 20 23 34 34 35 41 41 38 37 38 38 44 46 36 39 43 49 35 27 32 27 26 32 31 32 30

GFSMW_850_spd_033.txt.gz
Wind_Speed
30 31 31 31 30 29 29 30 30 29 26 24 22 20 20 18 16 15 16 16 13 11 10 7 5 3 4 4 2 1 2 3 2 6 7 3 4 3 3 5 6 4 3
30 31 33 33 33 32 32 32 32 31 31 26 24 21 19 17 16 15 17 17 15 13 12 10 10 8 4 7 3 5 4 1 6 5 7 8 6 4 4 4 4 4 4
34 34 36 37 34 34 34 34 35 34 32 26 24 22 20 19 18 17 17 16 16 14 15 12 10 9 9 9 2 3 6 2 5 8 3 0 7 9 5 3 5 4 3
33 34 36 36 37 36 35 34 36 36 33 33 25 27 24 22 20 18 17 17 17 16 15 13 11 11 8 8 5 5 6 5 5 6 5 4 1 5 7 6 6 3 4
34 35 37 37 37 36 36 36 37 36 32 31 30 27 27 22 19 18 19 21 19 17 16 15 14 13 12 12 10 9 7 6 7 5 5 4 3 2 0 9 9 5 7
34 35 36 34 34 34 34 34 36 37 36 34 35 31 29 25 21 21 19 19 20 16 21 18 19 16 13 12 9 9 8 10 8 7 6 4 4 4 4 5 7 9 8
32 35 36 36 35 37 37 37 39 40 41 40 34 38 34 29 26 23 22 20 20 20 21 22 23 17 17 15 14 14 11 9 10 12 7 7 6 5 5 5 3 2 4
31 36 37 38 39 40 41 40 40 41 40 43 41 39 40 30 30 28 23 23 20 20 19 24 22 22 18 19 18 14 12 12 12 12 13 9 8 7 7 6 4 4 5
30 34 37 40 40 40 44 46 44 44 44 44 45 44 42 41 33 31 29 24 24 20 22 22 21 23 23 21 20 17 18 16 15 14 13 15 10 10 9 7 6 6 6
31 33 37 40 41 43 45 47 49 49 45 48 47 46 45 43 42 36 35 30 27 25 21 26 24 23 25 25 24 19 18 20 17 15 17 16 12 13 11 9 9 8 8
30 31 36 38 41 39 40 45 47 47 47 48 50 48 48 46 44 45 42 38 33 32 30 26 27 26 27 27 27 25 21 24 22 20 20 21 19 15 13 13 12 11 10
28 29 33 32 36 39 40 42 45 45 50 49 51 51 49 48 48 48 47 45 43 40 38 34 34 29 27 29 30 29 25 26 23 23 24 25 22 23 20 16 16 14 14
25 30 31 32 33 38 41 41 43 44 43 44 46 51 53 53 53 51 47 47 45 44 42 40 40 38 33 33 34 33 33 30 30 28 27 27 27 26 22 24 18 17 19
9 21 26 30 31 32 37 41 41 40 40 41 43 46 51 56 55 52 51 46 45 44 44 43 42 42 40 38 38 39 38 37 35 34 32 30 30 28 26 25 24 22 18
9 11 17 21 20 26 30 37 38 38 39 42 44 48 49 49 49 49 51 48 48 47 44 44 45 45 44 41 44 42 43 41 41 37 37 33 32 30 28 26 26 22 23
9 9 11 18 23 29 29 31 37 38 37 41 46 44 45 45 47 47 49 49 47 48 48 49 48 48 46 43 43 43 43 43 42 41 39 39 33 33 33 30 26 26 24
13 13 14 15 20 23 25 28 32 36 38 42 41 44 44 45 46 46 47 53 54 51 52 51 50 50 51 50 47 45 44 43 45 44 43 41 34 36 36 34 31 32 31
14 15 15 16 17 18 20 23 23 31 37 40 44 45 48 46 44 45 47 48 48 51 52 52 52 52 54 52 51 50 48 49 47 45 45 43 42 39 39 36 36 36 37
21 19 19 20 18 15 17 18 22 26 32 39 45 48 44 44 44 50 49 48 46 47 50 50 51 54 56 55 53 52 53 54 53 50 44 43 43 44 45 40 37 35 34
20 18 19 18 19 21 22 22 24 26 34 34 41 42 42 43 47 47 46 45 44 45 41 44 48 52 54 56 57 55 55 56 57 56 51 47 47 45 46 46 42 40 37
17 15 13 13 18 18 20 24 26 28 37 29 32 38 41 44 45 43 41 41 41 38 40 42 44 46 50 54 58 59 59 61 59 56 52 56 57 52 51 50 47 44 36
20 19 17 16 15 17 19 22 27 26 28 29 29 33 36 35 34 40 39 38 36 36 40 40 42 45 49 52 57 61 63 63 61 52 50 46 49 49 48 47 44 40 33
18 16 19 17 14 12 17 21 25 22 23 26 29 29 30 33 32 31 33 31 34 34 35 38 41 46 46 47 51 56 58 60 62 59 43 40 43 44 44 43 43 39 35
12 10 12 12 10 8 10 14 14 18 21 22 25 24 25 27 25 27 25 28 28 32 36 35 39 39 36 38 38 42 46 52 57 59 53 43 44 46 44 41 37 39 37
8 6 4 5 5 3 4 5 5 9 14 16 16 17 17 20 21 23 23 25 27 28 28 31 32 32 35 37 36 37 39 44 51 54 50 46 47 45 46 41 39 43 37
6 4 3 4 4 4 3 2 7 7 10 11 11 12 13 13 14 16 17 25 27 25 31 32 32 30 30 35 32 36 40 42 37 41 56 57 50 52 54 49 47 42 31

GFSMW_850_spd_036.txt.gz
Wind_Speed
33 34 32 32 31 33 34 35 33 30 29 25 24 22 18 17 15 14 13 14 15 13 11 6 3 3 3 4 4 4 6 4 2 9 9 3 4 6 1 9 10 4 8
36 37 36 36 36 37 36 36 37 34 31 30 25 22 20 18 17 16 16 19 18 14 11 9 5 6 7 6 2 6 5 3 12 6 9 9 9 4 6 9 7 5 8
36 37 40 40 39 38 41 39 38 38 36 32 27 22 21 19 20 18 19 20 20 16 14 12 9 9 7 6 2 7 8 5 6 4 3 4 8 12 4 7 10 6 5
36 39 38 38 40 40 41 41 38 39 39 36 29 29 30 27 23 21 20 19 16 18 15 12 11 12 9 9 3 6 9 4 3 9 3 3 4 7 8 6 8 5 5
39 41 42 42 41 40 41 43 40 38 39 38 31 29 28 27 23 21 19 21 19 16 16 17 14 13 14 11 7 8 9 8 8 3 4 5 3 4 5 9 10 5 8
39 41 42 40 40 39 40 40 40 39 39 36 39 31 32 28 26 25 23 22 22 21 17 20 16 14 17 12 11 11 8 11 12 11 7 5 7 5 8 8 15 13 11
39 40 44 43 44 41 43 42 42 42 39 42 38 40 33 31 29 26 25 24 24 24 20 19 22 20 16 17 14 11 9 12 15 16 14 10 7 5 5 5 3 10 10
37 43 46 45 46 44 45 46 46 44 41 42 42 38 40 36 33 31 27 28 25 23 23 22 21 18 18 20 18 18 13 13 14 15 16 14 10 8 7 6 4 5 9
38 43 44 45 47 46 46 48 48 46 42 41 43 40 41 41 36 35 32 26 27 23 24 23 24 22 20 22 23 21 18 14 15 15 16 16 14 10 9 9 9 9 8
36 39 44 44 46 49 48 48 48 49 43 42 43 45 44 44 42 35 34 34 26 28 21 27 26 24 21 25 23 25 23 20 22 19 18 19 18 15 14 13 12 11 10
37 37 44 45 47 47 45 49 48 48 47 43 44 46 46 44 44 43 37 36 33 26 28 21 28 27 24 25 29 28 24 24 25 25 23 22 19 19 17 17 16 14 12
35 37 41 43 43 44 46 48 48 47 50 47 43 46 46 46 44 44 45 40 38 36 33 32 28 32 28 26 30 33 31 28 30 29 28 27 24 21 21 20 18 17 16
26 35 39 40 42 45 46 45 48 48 43 44 44 45 48 48 47 46 45 46 43 41 38 38 39 37 35 31 29 32 33 34 34 34 30 29 29 25 23 26 26 22 21
24 31 35 39 38 42 45 44 43 45 44 41 42 44 46 49 48 47 47 46 47 46 45 44 44 43 41 39 35 32 33 33 35 34 36 33 32 31 27 27 28 28 23
12 22 29 37 41 41 44 44 43 43 43 44 44 45 44 46 47 47 48 48 48 49 48 47 45 44 43 43 40 38 38 38 37 38 37 39 38 36 32 29 29 29 31
8 5 9 6 11 36 39 46 46 43 44 45 48 46 44 44 47 47 48 49 50 49 48 48 47 47 48 46 43 41 40 41 41 41 40 43 44 42 39 35 31 31 31
1 2 4 9 12 15 26 34 42 41 41 46 47 47 47 47 47 48 48 49 50 50 50 49 49 50 50 49 46 43 43 44 44 44 44 43 46 45 44 41 36 32 33
7 10 13 14 14 20 23 27 27 36 41 41 44 44 46 48 49 49 50 51 50 52 52 50 50 50 52 52 51 48 47 49 49 48 47 46 45 46 46 45 43 40 40
13 11 13 17 17 20 25 34 33 34 37 42 44 45 44 46 48 51 52 49 49 51 52 52 52 54 54 54 54 52 51 53 55 55 53 52 49 48 47 47 48 45 42
9 6 7 10 19 18 17 25 31 34 34 34 37 46 45 48 51 50 50 48 49 49 48 51 53 55 56 57 58 56 53 55 59 59 59 58 58 54 50 49 49 50 47
14 13 12 7 12 7 10 15 22 29 28 31 32 33 40 45 48 46 43 45 45 43 44 45 46 49 51 53 54 55 54 60 60 61 57 61 62 60 54 50 51 54 47
16 13 13 15 9 13 19 21 18 26 28 29 32 35 34 38 42 42 42 40 41 41 43 42 44 47 48 49 49 50 53 55 50 49 48 48 51 55 55 54 53 53 50
17 13 12 15 15 12 17 19 22 23 25 26 29 32 30 32 34 33 39 37 37 39 41 42 41 41 41 37 40 43 45 46 50 56 50 42 40 46 46 52 55 53 53
17 12 10 8 10 10 14 18 24 22 19 24 22 27 28 29 30 33 29 33 34 36 38 32 33 33 29 29 29 33 34 35 40 42 48 55 52 39 45 49 52 56 58
21 12 10 8 4 7 9 9 10 11 17 22 21 22 22 23 26 27 28 26 26 30 29 30 29 27 25 24 30 29 33 35 37 36 38 43 53 57 59 50 54 57 62
18 12 10 8 5 4 8 14 13 11 9 14 15 16 17 18 20 19 19 28 20 21 26 28 24 21 23 26 29 29 29 27 36 42 41 44 47 51 55 62 53 56 61

GFSMW_850_spd_042.txt.gz
Wind_Speed
44 47 45 45 45 42 39 44 44 40 35 35 31 30 28 28 24 15 13 14 10 7 8 9 10 11 10 6 7 7 9 9 8 12 10 7 7 4 5 5 7 7 8
46 47 47 46 49 48 45 44 47 43 37 31 27 33 33 31 28 21 15 15 14 12 9 12 10 13 10 8 7 10 13 10 12 14 14 10 6 5 11 5 8 7 7
48 52 50 48 51 50 49 47 48 44 39 32 27 28 32 33 30 29 24 19 15 14 11 10 14 12 10 7 6 13 10 10 16 13 8 6 4 11 12 8 10 7 2
44 49 51 53 53 53 51 49 48 45 41 35 30 28 33 34 34 30 29 23 18 17 13 11 15 13 12 9 8 12 11 12 16 13 10 8 11 11 10 12 10 10 4
50 47 53 56 55 55 55 53 50 48 44 39 34 31 31 33 28 27 23 22 23 19 15 14 16 15 14 11 11 13 15 14 18 15 11 8 11 14 7 13 11 11 9
47 49 54 51 55 58 57 59 54 51 47 41 37 34 34 31 31 28 26 25 24 21 18 14 18 16 16 14 14 13 17 14 14 14 15 11 11 17 11 8 12 15 13
49 47 48 51 54 57 55 57 56 53 48 43 39 37 36 32 32 31 29 27 26 24 22 20 17 19 17 16 16 16 15 15 16 16 14 11 14 11 9 9 7 10 15
52 50 54 56 53 60 57 57 56 53 50 46 42 38 38 35 34 33 31 30 27 24 21 21 19 16 18 18 18 17 14 16 17 17 15 15 14 13 10 11 10 8 12
51 52 51 57 56 61 63 60 58 55 52 48 43 40 38 38 37 35 34 32 31 26 23 23 22 20 18 20 18 20 17 16 16 20 19 18 18 16 14 14 16 16 12
52 52 52 57 59 65 62 58 59 56 51 49 45 42 39 39 39 36 34 33 31 29 26 24 23 20 19 19 19 18 19 20 19 18 22 22 21 20 20 18 14 18 17
54 56 56 60 65 62 62 58 59 55 52 48 45 43 42 41 43 41 37 33 32 31 30 27 23 24 22 22 23 21 19 23 23 23 22 22 22 23 23 20 19 19 19
59 56 57 58 56 54 57 60 57 55 51 43 42 43 42 40 42 44 41 37 35 34 31 31 30 22 24 26 27 26 24 24 26 28 27 26 25 26 27 26 25 24 22
55 53 51 51 55 54 57 59 56 52 47 45 44 43 41 40 40 42 43 41 38 37 36 31 34 35 34 27 29 30 27 24 26 28 31 31 29 29 28 29 31 30 28
50 52 50 52 56 57 57 57 55 52 46 45 43 42 40 39 37 37 41 42 40 39 40 39 38 36 37 36 31 29 29 27 25 26 28 31 33 33 31 30 32 33 34
47 51 52 50 54 54 54 54 53 51 47 44 42 41 38 37 36 35 37 39 40 40 41 41 41 42 39 37 35 35 33 32 30 29 29 30 31 32 34 34 34 33 34
48 52 52 53 56 56 55 55 53 50 48 46 42 37 38 39 38 36 34 35 38 39 40 44 44 45 45 45 43 40 38 38 38 37 36 36 36 36 36 37 36 36 35
39 46 51 57 59 58 55 54 51 48 47 45 43 41 38 39 38 37 37 37 36 36 40 41 43 46 47 46 46 45 45 45 44 44 42 42 40 39 39 39 38 39 39
25 33 35 38 40 42 44 46 43 45 44 44 41 39 39 37 35 37 36 36 36 37 38 39 42 43 45 45 45 45 46 48 48 47 45 45 43 43 42 42 43 43 44
31 31 27 28 31 35 37 37 39 40 42 44 43 40 39 38 36 37 36 32 33 35 36 36 38 41 42 40 40 39 41 45 47 47 47 47 48 47 45 45 46 47 51
25 23 24 25 22 19 25 30 33 44 45 45 45 43 41 41 41 37 36 34 35 36 35 37 37 37 38 36 36 35 36 41 42 44 47 49 51 50 48 49 49 52 57
30 24 19 20 17 14 11 18 29 36 34 42 44 43 43 43 41 39 39 39 39 40 40 40 40 40 39 38 36 34 35 38 38 41 44 45 46 47 48 49 51 55 50
25 25 19 15 13 11 10 9 5 23 36 37 40 40 38 38 40 40 40 40 40 42 42 42 42 42 41 39 37 34 33 32 36 40 41 41 41 41 42 43 47 48 46
25 23 22 21 15 9 6 3 3 3 5 18 32 35 37 37 36 36 36 36 37 39 41 41 42 41 40 38 34 32 30 30 31 32 35 36 37 39 40 40 42 44 45
27 20 17 17 14 11 7 3 1 4 6 9 13 17 23 26 32 34 34 34 34 34 36 38 38 37 36 34 28 27 27 26 27 28 27 28 30 34 38 41 45 46 49
26 19 14 13 13 7 4 4 6 9 11 15 15 20 24 26 26 29 32 32 31 30 30 29 29 30 29 27 28 27 26 24 23 25 27 28 28 32 35 38 42 45 48
19 19 10 6 7 9 12 11 12 13 14 13 15 17 22 24 22 26 30 30 28 27 26 23 22 23 23 24 24 23 22 23 24 23 24 27 29 32 33 35 38 40 44

GFSMW_850_spd_045.txt.gz
Wind_Speed
42 46 47 44 38 36 36 34 35 33 31 31 30 27 24 21 16 14 13 13 8 3 5 5 8 8 6 5 7 7 7 8 8 9 7 5 5 5 4 2 3 4 4
37 45 49 47 46 41 40 40 38 36 36 34 31 30 27 26 22 17 14 14 12 8 6 7 8 8 10 7 8 8 11 9 8 13 10 5 5 4 9 7 7 4 5
43 45 50 50 48 48 45 46 40 41 40 37 35 32 30 28 29 25 21 15 15 13 10 8 11 10 11 9 6 10 11 10 10 11 10 6 4 6 9 8 8 8 4
40 44 47 53 54 53 48 47 46 42 44 43 38 34 33 35 33 32 26 20 17 15 14 11 11 13 12 10 8 9 11 10 14 13 8 9 7 6 7 11 10 12 7
45 47 52 52 51 53 52 51 48 46 44 47 42 36 33 35 37 35 30 27 21 18 16 14 10 13 14 11 9 9 13 12 15 12 9 11 11 10 5 8 10 10 9
46 48 55 51 49 51 55 54 53 50 46 49 46 39 34 30 33 33 33 30 27 24 20 16 13 14 15 13 12 10 15 12 15 16 13 10 11 16 13 8 7 9 9
42 43 50 49 54 54 53 56 56 54 50 49 49 43 38 32 30 31 31 31 27 25 23 18 16 15 16 14 13 13 12 16 14 14 17 16 13 11 15 11 9 9 12
45 46 43 52 54 56 57 56 57 56 54 52 51 47 41 35 31 31 32 31 30 26 20 19 18 16 16 15 15 15 14 14 15 15 16 16 16 17 14 12 11 10 9
40 41 45 49 52 56 58 58 59 57 56 54 52 50 45 39 34 33 31 32 29 26 23 20 20 18 17 17 17 17 17 16 17 16 18 18 17 16 16 13 14 14 17
43 46 42 46 53 56 55 57 57 55 55 57 54 52 47 41 35 35 35 33 31 29 26 24 22 21 19 19 19 19 18 19 17 16 20 22 20 19 19 18 17 17 17
48 54 50 50 54 52 55 57 58 56 57 55 54 52 49 43 38 36 36 34 33 32 29 28 25 23 21 20 21 20 19 21 21 20 22 23 23 24 24 24 23 21 21
50 51 54 52 54 49 50 57 57 58 57 54 52 52 48 45 42 37 35 34 34 33 33 29 27 25 24 24 24 24 24 23 23 23 25 26 24 26 26 26 27 26 25
49 48 48 47 53 54 50 53 56 59 59 56 53 52 51 48 44 39 35 34 35 35 33 32 31 30 29 26 27 27 28 27 26 24 25 28 29 30 29 28 29 31 30
50 50 45 48 55 55 54 55 56 57 56 54 53 52 50 49 43 37 35 34 34 36 36 36 36 33 32 32 30 27 27 30 30 28 25 25 28 31 32 32 32 31 32
49 47 47 48 53 51 51 51 55 55 51 52 51 49 46 44 40 37 35 34 34 35 38 38 39 39 37 34 35 35 34 30 29 28 28 27 27 26 27 30 32 34 35
43 47 51 51 51 53 57 56 54 51 48 49 47 44 44 41 39 36 36 34 33 34 36 40 42 41 43 41 39 36 35 34 34 34 32 32 32 32 32 32 33 35 36
44 46 48 50 52 56 58 58 52 47 48 48 46 46 44 43 39 35 36 36 35 33 36 37 40 43 43 42 41 40 40 40 39 39 38 39 39 39 39 39 40 41 43
34 45 49 50 53 54 55 51 48 46 45 45 45 44 44 42 39 38 38 36 36 35 34 35 38 40 41 41 42 41 42 44 45 45 44 45 44 44 42 41 43 43 45
23 32 38 40 40 45 49 48 45 42 42 42 41 42 41 39 38 37 35 33 34 34 34 34 35 37 37 37 36 37 40 44 45 45 45 44 44 42 41 41 43 43 47
21 22 25 28 30 34 40 42 41 38 38 37 37 36 35 34 35 33 30 28 30 29 28 29 29 29 30 29 28 30 33 37 39 39 41 42 42 41 40 42 43 47 49
29 28 24 26 27 29 33 34 32 32 31 34 38 35 33 33 33 32 32 30 30 30 31 31 31 31 31 29 27 26 28 31 32 34 36 37 35 34 33 34 37 42 38
31 30 30 29 23 21 31 30 29 30 29 31 32 33 36 36 37 35 34 34 33 33 34 34 35 35 34 33 30 27 28 27 31 33 33 32 29 30 31 31 32 33 33
28 26 28 27 25 23 21 22 19 18 17 24 26 27 26 30 34 35 33 33 33 34 33 34 35 35 34 32 30 27 25 24 27 26 27 26 26 28 29 29 30 32 36
26 23 22 23 21 16 14 15 12 10 9 8 9 15 21 24 26 28 29 31 30 30 31 32 31 30 29 29 26 24 21 20 22 22 23 23 24 24 26 29 31 34 36
23 20 19 16 15 13 8 4 4 6 7 8 7 8 11 13 18 21 24 26 28 30 29 28 25 23 23 20 19 20 21 21 21 22 24 25 26 25 24 25 27 31 35
18 18 15 13 11 9 8 6 5 8 10 13 15 14 14 15 18 19 22 25 27 28 27 25 23 21 19 17 17 18 18 18 20 22 21 21 21 22 25 30 32 32 32

GFSMW_850_spd_048.txt.gz
Wind_Speed
36 38 41 40 38 36 34 32 32 31 31 31 29 26 22 17 15 15 14 13 9 7 7 5 6 7 7 6 7 7 3 7 7 5 2 2 2 3 2 2 2 3 3
35 38 43 42 41 38 38 35 32 34 33 34 31 29 24 20 16 13 13 14 11 8 7 5 5 7 7 4 6 7 6 7 8 8 5 2 2 3 6 4 3 2 2
37 40 43 46 44 42 40 37 34 36 34 34 33 30 27 23 21 19 16 13 13 11 9 7 7 8 6 6 5 6 8 9 8 10 8 4 3 3 6 7 5 6 2
37 40 45 47 48 46 42 39 37 37 35 33 33 31 30 29 27 24 21 17 13 13 11 10 7 8 7 7 6 5 7 10 9 10 10 8 4 4 4 9 7 7 4
42 42 49 54 50 48 46 43 40 39 38 37 36 34 32 30 28 27 25 23 19 15 13 12 10 8 10 9 8 7 9 9 10 12 9 8 7 7 5 2 5 7 8
41 43 45 42 50 48 49 48 45 42 41 39 38 39 36 33 30 30 31 28 26 22 18 15 14 11 10 11 9 9 9 11 12 13 10 9 10 11 10 7 6 5 5
41 45 44 45 48 48 51 49 50 47 44 43 41 39 40 37 31 27 29 32 31 29 25 20 17 14 11 11 11 11 10 13 13 15 16 15 12 10 9 13 10 8 8
37 41 44 48 53 52 51 51 51 52 47 44 41 39 39 40 35 30 25 28 29 28 22 21 18 15 12 12 12 13 13 11 16 15 13 15 15 15 13 11 11 11 10
40 42 46 48 52 54 54 54 51 50 51 48 43 42 40 41 40 34 28 25 27 26 24 19 18 17 15 13 14 15 15 15 14 15 15 15 15 14 14 15 13 12 14
38 41 45 47 51 55 56 54 52 50 50 49 47 45 43 41 41 38 32 28 27 27 26 23 20 19 18 17 17 17 16 17 17 15 16 16 16 15 15 15 15 15 16
42 46 50 52 52 50 51 55 54 53 52 51 49 48 46 44 43 42 36 31 28 27 28 24 22 21 21 21 22 21 19 19 19 19 18 17 17 19 20 20 21 20 20
46 50 52 48 48 50 50 52 53 54 52 51 49 48 46 45 45 44 39 33 30 29 29 27 26 26 24 23 23 22 21 20 20 19 21 21 20 21 21 23 25 25 25
35 39 39 42 49 52 51 50 51 52 52 51 49 47 47 46 46 45 41 36 32 31 30 30 30 29 28 27 25 24 24 23 23 22 21 21 22 25 25 25 26 26 26
27 34 42 44 48 53 54 50 50 50 50 49 48 47 46 45 42 41 41 38 35 31 32 33 32 32 30 30 28 27 26 26 27 26 27 26 25 24 25 28 30 30 31
35 39 42 46 48 48 52 49 49 48 48 47 47 46 45 43 41 41 39 39 37 34 32 34 35 34 34 33 32 30 29 28 27 26 26 27 26 24 23 25 26 27 30
29 33 42 46 49 53 56 54 51 49 46 43 43 43 43 43 42 40 39 38 37 36 35 36 36 37 37 36 34 33 33 33 32 32 31 30 29 28 27 28 29 31 33
26 29 47 49 51 54 56 55 54 48 44 39 38 39 41 42 41 39 39 38 38 36 36 36 37 38 39 37 36 36 36 36 36 35 35 34 34 33 33 33 34 37 39
17 28 40 48 52 52 52 50 51 48 42 39 41 40 40 39 40 40 40 38 37 37 36 36 35 36 38 38 37 37 38 41 42 41 40 40 40 40 39 39 41 43 43
10 22 34 38 43 47 47 47 45 44 42 41 38 37 37 37 37 38 37 37 36 35 36 35 34 35 34 34 35 36 40 42 44 44 44 44 44 43 42 42 43 42 42
4 13 25 29 33 37 39 41 41 41 42 38 37 36 35 35 35 33 34 33 33 33 34 34 34 33 31 29 29 30 34 39 40 40 41 41 40 38 36 37 37 41 40
12 12 21 25 26 29 31 34 36 39 37 34 33 30 30 30 29 29 30 32 31 30 29 28 27 27 25 23 22 24 28 30 32 34 34 34 31 29 28 29 30 32 28
24 17 16 23 25 25 26 30 29 29 29 28 27 27 27 28 29 28 27 27 27 27 27 27 26 26 25 24 23 23 26 26 30 31 31 29 26 25 24 24 26 26 26
30 30 30 15 22 27 25 24 26 27 27 27 25 23 22 24 26 26 26 26 26 27 27 28 28 27 25 23 22 21 22 23 27 27 24 21 20 20 22 22 23 24 28
30 26 26 29 29 21 19 18 16 15 17 20 21 20 20 20 21 22 23 25 25 26 26 26 26 24 22 20 18 18 19 20 22 21 19 22 22 23 23 23 26 30 31
26 23 21 20 20 19 18 16 14 14 13 12 11 11 13 18 21 24 24 24 25 23 25 25 23 23 22 15 12 13 15 16 16 19 22 23 24 25 26 25 22 21 24
26 24 19 16 15 13 13 11 9 5 6 8 9 10 10 12 14 18 22 23 24 24 25 26 23 19 17 14 14 15 15 15 17 19 21 21 22 21 20 20 22 26 28